[[{"header":{"parameterUnit":"m.s-1","parameterCategory":1,"la1":30.2992,"la2":30.254,"lo1":-89.0895,"lo2":-89.0443,"dy":0.0025,"dx":0.0025,"nx":19,"ny":19,"refTime":"2026-04-09T21:00:00:Z","depth":0,"parameterNumber":2,"parameterNumberName":"U-component_of_WINDS"},"data":[0,0,0,-7.3171,-7.3174,-7.3312,-7.3312,-7.3507,-7.3509,0,0,0,0,0,0,0,0,0,0,0,-7.3143,-7.3145,-7.317,-7.3174,-7.3311,-7.3312,-7.3507,-7.3509,0,0,0,0,0,0,0,0,0,0,0,-7.3142,-7.3144,-7.3146,-7.3175,-7.3311,-7.3312,-7.3506,-7.3395,0,0,0,0,0,0,0,0,0,0,-7.3258,-7.3246,-7.3144,-7.3147,-7.3176,-7.3311,-7.3312,-7.339,-7.3402,-7.3454,0,-7.3504,0,-7.351,-7.3523,-7.3524,0,0,0,-7.3164,-7.3235,-7.3261,-7.3147,-7.3177,-7.3311,-7.3247,-7.3396,-7.3411,-7.347,-7.3507,-7.3513,-7.3513,-7.3525,-7.3526,-7.3861,-7.3863,0,0,-7.3156,-7.3174,-7.3251,-7.3271,-7.3253,-7.3242,-7.3251,-7.3405,-7.3444,-7.3507,-7.3517,-7.3517,-7.3526,-7.3528,-7.3859,-7.3862,0,0,0,-7.3141,-7.3169,-7.319,-7.3263,-7.3287,-7.3246,-7.3257,-7.3438,-7.3443,-7.3519,-7.3519,-7.3527,-7.353,-7.3857,-7.386,-7.3978,0,0,0,-7.3136,-7.316,-7.3188,-7.32,-7.3285,-7.3364,-7.3286,-7.3433,-7.3449,-7.3518,-7.3528,-7.3532,-7.3854,-7.3858,-7.397,-7.4029,0,0,0,-7.3129,-7.3159,-7.3184,-7.3201,-7.3261,-7.3361,-7.3376,-7.3436,-7.345,-7.3524,-7.3533,-7.3853,-7.3858,-7.3962,-7.4017,-7.4121,0,0,0,-7.3126,-7.3286,-7.3186,-7.3365,-7.326,-7.3435,-7.3374,-7.3503,-7.3582,-7.3529,-7.3855,-7.386,-7.396,-7.401,-7.4114,-7.421,-7.4253,0,0,-7.3337,-7.3312,-7.3416,-7.333,-7.3528,-7.3412,-7.3627,-7.368,-7.3671,-7.3798,-7.3806,-7.3972,-7.4016,-7.412,-7.4492,-7.4526,0,0,0,-7.3488,-7.3562,-7.3611,-7.3688,-7.3735,-7.378,-7.38,-7.382,-7.3928,-7.374,-7.4039,-7.4065,-7.4125,-7.4169,-7.4199,-7.4248,-7.3882,-7.3882,-7.3881,-7.3809,-7.379,-7.396,-7.3959,-7.4035,-7.4055,-7.4114,-7.4145,-7.4102,-7.4174,-7.4209,-7.4438,-7.4492,-7.4513,-7.4565,-7.4262,-7.4262,-7.4263,-7.4263,-7.4113,-7.4214,-7.4159,-7.4303,-7.4282,-7.4403,-7.443,-7.4397,-7.4505,-7.4409,-7.446,-7.4354,-7.4551,-7.4595,-7.4272,-7.427,-7.4269,-7.4268,-7.4268,-7.4318,-7.4363,-7.4388,-7.4499,-7.4586,-7.458,-7.4687,-7.4665,-7.4644,-7.4696,-7.4731,-7.4729,-7.4722,-7.4715,-7.4716,-7.4717,-7.4718,-7.4718,-7.4719,-7.4519,-7.4543,-7.4637,-7.4704,-7.4751,-7.481,-7.4836,-7.4882,-7.4926,-7.4901,-7.4901,-7.485,-7.4576,-7.4505,-7.4731,-7.4729,-7.4727,-7.4726,-7.4725,-7.4828,-7.4756,-7.49,-7.4948,-7.5025,-7.5113,-7.5086,-7.5181,-7.5216,-7.527,-7.5211,-7.5012,-7.4983,-7.496,-7.4901,-7.5215,-7.5215,-7.5216,-7.5216,-7.4998,-7.4983,-7.5127,-7.5205,-7.5279,-7.5271,-7.5434,-7.5457,-7.5469,-7.5489,-7.5441,-7.5363,-7.5341,-7.5325,-7.5294,-7.5238,-7.5631,-7.5632,-7.5632,-7.5185,-7.5178,-7.5321,-7.5334,-7.5393,-7.5445,-7.5598,-7.5689,-7.5687,-7.5648,-7.5504,-7.5486,-7.5359,-7.532,-7.5272,-7.5224,-7.5122,0,0]},{"header":{"parameterUnit":"m.s-1","parameterCategory":1,"la1":30.2992,"la2":30.254,"lo1":-89.0895,"lo2":-89.0443,"dy":0.0025,"dx":0.0025,"nx":19,"ny":19,"refTime":"2026-04-09T21:00:00:Z","depth":0,"parameterNumber":3,"parameterNumberName":"V-component_of_WINDS"},"data":[0,0,0,1.56,1.5601,1.5676,1.5676,1.5751,1.5752,0,0,0,0,0,0,0,0,0,0,0,1.5566,1.5566,1.56,1.5601,1.5676,1.5676,1.5751,1.5752,0,0,0,0,0,0,0,0,0,0,0,1.5566,1.5566,1.5566,1.5602,1.5676,1.5676,1.5751,1.5702,0,0,0,0,0,0,0,0,0,0,1.5633,1.559,1.5566,1.5566,1.5602,1.5675,1.5676,1.57,1.5705,1.5709,0,1.571,0,1.5732,1.5755,1.5756,0,0,0,1.561,1.5586,1.5617,1.5566,1.5603,1.5675,1.5645,1.5703,1.5708,1.5716,1.5711,1.5714,1.5733,1.5756,1.5756,1.5754,1.5753,0,0,1.5606,1.5573,1.5613,1.562,1.5608,1.5642,1.5647,1.5707,1.5699,1.5711,1.5717,1.5734,1.5756,1.5756,1.5754,1.5754,0,0,0,1.5588,1.5569,1.56,1.5616,1.5631,1.5644,1.5649,1.5696,1.5709,1.5717,1.5735,1.5756,1.5757,1.5755,1.5754,1.5701,0,0,0,1.5586,1.5559,1.5597,1.5578,1.563,1.5665,1.5637,1.5705,1.5713,1.5735,1.5756,1.5758,1.5755,1.5754,1.5704,1.5681,0,0,0,1.5565,1.5557,1.5564,1.5576,1.5607,1.5665,1.5681,1.5707,1.5723,1.5756,1.5758,1.5755,1.5754,1.5706,1.5685,1.5671,0,0,0,1.5533,1.5515,1.5562,1.555,1.5606,1.5632,1.5681,1.5702,1.5724,1.5757,1.5755,1.5754,1.5707,1.5687,1.5673,1.5652,1.5641,0,0,1.5491,1.5509,1.5504,1.5549,1.5558,1.5624,1.5626,1.5676,1.5709,1.5737,1.5737,1.5703,1.5685,1.5671,1.559,1.5581,0,0,0,1.548,1.5475,1.5485,1.5505,1.5545,1.5577,1.5631,1.565,1.5676,1.5717,1.5696,1.5686,1.568,1.5671,1.5663,1.5659,1.5749,1.5749,1.5749,1.5371,1.5417,1.5412,1.5466,1.5485,1.5543,1.5562,1.5598,1.5636,1.5631,1.5638,1.5584,1.5573,1.5567,1.5562,1.5632,1.5632,1.5632,1.5632,1.5314,1.5315,1.537,1.5385,1.5433,1.5446,1.5501,1.5529,1.5548,1.5581,1.5578,1.5609,1.5555,1.5554,1.5628,1.5629,1.5629,1.563,1.563,1.5246,1.5255,1.528,1.5315,1.5337,1.5394,1.541,1.5454,1.5494,1.5491,1.5504,1.5505,1.551,1.5494,1.5494,1.5494,1.5494,1.5494,1.5494,1.5165,1.5196,1.5205,1.5248,1.5267,1.5299,1.5359,1.5379,1.5413,1.5443,1.5443,1.5482,1.5543,1.5556,1.5491,1.5491,1.5492,1.5492,1.5492,1.5087,1.5113,1.5126,1.5146,1.5201,1.522,1.5277,1.5315,1.5339,1.5345,1.5387,1.5425,1.5445,1.5451,1.5463,1.5377,1.5377,1.5377,1.5377,1.5029,1.5045,1.5069,1.5098,1.5132,1.5186,1.52,1.5247,1.53,1.5317,1.5337,1.5356,1.5361,1.5378,1.5386,1.5397,1.5297,1.5297,1.5297,1.4983,1.5005,1.5008,1.5061,1.5109,1.5148,1.5163,1.5194,1.5259,1.5295,1.5332,1.5335,1.5367,1.5375,1.5409,1.542,1.5442,0,0]}]]